STARLINK-1736 (46585 NORAD) Tracking and Keplerian Element Data

This shows tracking and keplerian element data for the satellite.

Feedback or suggestion? Click here.




ElementValue
Catalog46585
NameSTARLINK-1736
Epoch Orbit182
Epoch Day302.58334491
Epoch Year2020
RAAN333.3311
Inclination52.9997
Eccentricity0.0001479
Argument of Perigee60.426
Mean Anonmoly38.6963
Mean Motion15.62679153
Decay Rate0.00066219
L11 46585U 20070BF 20302.58334491 .00066219 00000-0 72520-3 0 9994
L22 46585 52.9997 333.3311 0001479 60.4260 38.6963 15.62679153 1828

Live tracking and technical data element details for STARLINK-1736 (NORAD 46585). STARLINK-1736 can be tracked NOW for your location showing map with azimuth and elevation plus other details from your city location.

Track the satellite on the map from your city or location and see movement details for azimuth, elevation, latitude, longitude, range, height, and movement on the map or in text.







IsCatalogInMostPopularTable: catalog: 46585, numindb: 3
Update: records affected: 1



GetName: 46585 STARLINK-1736

Hit Count: updated at: Fri, 30 Oct 2020 01:56:12 GMT